Regional Weather Roundup
Issued by NWS Cleveland, OH

Home | Current Version | Previous Version | Text Only | Print | Product List | Glossary On
Versions: 1 2 3 4 5 6 7 8 9 10 11 12 13 14 15 16 17 18 19 20 21 22 23 24 25 26 27 28 29 30 31 32 33 34 35 36 37 38 39 40 41 42 43 44 45 46 47 48 49 50
000
ASUS41 KCLE 200112
RWRCLE
OHIO REGIONAL WEATHER ROUNDUP
NATIONAL WEATHER SERVICE WILMINGTON, OH
900 PM EDT TUE SEP 19 2017

NOTE: "FAIR" INDICATES FEW OR NO CLOUDS BELOW 12,000 FEET WITH NO
SIGNIFICANT WEATHER AND/OR OBSTRUCTIONS TO VISIBILITY.

OHZ001>008-015>018-024>027-034-035-043-044-200200-
   NORTHWEST OHIO

CITY           SKY/WX    TMP DP  RH WIND       PRES   REMARKS
DEFIANCE       FAIR      68  66  93 E3        29.94R
FINDLAY        FAIR      71  67  87 SE7       29.94R
TOLEDO EXPRESS CLOUDY    69  69 100 E5        29.94R FOG
TOLEDO EXEC    CLOUDY    69  66  90 E3        29.96R FOG
LIMA           FAIR      70  67  90 S7        29.95R
$$

OHZ009>014-019>023-028>033-038-089-200200-
   NORTHEAST OHIO

CITY           SKY/WX    TMP DP  RH WIND       PRES   REMARKS
CLE-HOPKINS    CLOUDY    75  67  76 E3        29.98R
CLE-LAKEFRONT  CLOUDY    72  67  84 NE5       29.96R
CUY CO. ARPT   CLOUDY    72  68  88 E7        29.99R
LORAIN-ELYRIA  CLOUDY    69  63  81 E5        29.97R
ASHTABULA      CLOUDY    69  67  93 CALM      30.00R
AKRON-CANTON   CLOUDY    74  63  68 NE5       30.00R
WOOSTER        MOCLDY    69  66  90 SE3       29.99R
MANSFIELD      FAIR      70  65  84 CALM      29.99R
YOUNGSTOWN     CLOUDY    71  65  81 NE5       29.99R
$$

OHZ042-051>053-060>062-070>072-077>081-200200-
  SOUTHWEST OHIO

CITY           SKY/WX    TMP DP  RH WIND       PRES   REMARKS
CINC-COVINGTON FAIR      68  68 100 CALM      29.95S
CINC-LUNKEN    MOCLDY    68  68 100 CALM      29.95R
HAMILTON       FAIR      68  66  93 CALM      29.95S
DAYTON         MOCLDY    68  66  93 SE5       29.96S
WRIGHT-PAT AFB CLOUDY    70  70 100 E3        29.95S
DAYTON GENERAL FAIR      69  64  84 SE7       29.95S
WILMINGTON     CLOUDY    69  68  96 E5        29.96S
$$

OHZ036-037-039>041-045>050-054>059-063>069-073>076-082>088-200200-
  CENTRAL AND SOUTHEAST OHIO

CITY           SKY/WX    TMP DP  RH WIND       PRES   REMARKS
COLUMBUS       CLOUDY    74  66  76 SE3       29.96R
OSU AIRPORT    CLOUDY    72  67  84 SW3       29.97R
BOLTON FIELD   CLOUDY    68  67  96 CALM      29.98R
RICKENBACK AFB CLOUDY    69  68  98 CALM      29.96S
NEWARK         MOCLDY    70  67  90 NE3       29.97R
MARION         MOCLDY    70  63  78 S6        29.97R
LANCASTER      FAIR      68  66  93 CALM      29.97S
ZANESVILLE     CLOUDY    73  66  78 CALM      29.98R
NEW PHILLY     CLOUDY    72  67  84 CALM      29.99R
$$



USA.gov is the U.S. government's official web portal to all federal, state and local government web resources and services.